Temp
-16 -16 -15 -16 -16 -16 -16 -16 -16 -16 -16 -16 -16 -16 -16 -16 -17 -17 -17 -17 -17 -17 -17 -17 -18 -18 -18 -18 -18 -18 -18 -19 -19 -19 -19 -18 -18 -18
-16 -16 -16 -16 -17 -17 -17 -17 -16 -16 -16 -16 -16 -17 -17 -17 -17 -18 -18 -17 -17 -17 -18 -18 -18 -18 -18 -18 -18 -19 -19 -20 -21 -20 -20 -20 -19 -19
-16 -17 -17 -17 -17 -16 -16 -17 -17 -17 -17 -17 -17 -17 -18 -18 -18 -18 -18 -18 -18 -18 -18 -18 -18 -18 -19 -19 -19 -19 -20 -22 -21 -20 -21 -20 -20 -20
-17 -17 -17 -18 -17 -17 -17 -17 -17 -17 -17 -17 -18 -18 -19 -18 -19 -19 -18 -18 -18 -19 -18 -19 -19 -19 -19 -19 -19 -20 -20 -22 -22 -21 -21 -21 -21 -21
-18 -18 -18 -19 -18 -18 -18 -18 -18 -18 -18 -17 -18 -19 -19 -19 -19 -19 -19 -19 -19 -19 -19 -19 -19 -19 -20 -20 -20 -21 -22 -23 -22 -22 -22 -22 -22 -22
-19 -19 -19 -19 -19 -19 -19 -19 -19 -19 -19 -19 -19 -19 -19 -19 -20 -19 -19 -19 -19 -19 -20 -20 -20 -20 -20 -21 -22 -23 -24 -24 -23 -23 -22 -22 -22 -22
-21 -20 -20 -20 -20 -19 -19 -20 -20 -19 -19 -19 -20 -20 -20 -20 -20 -20 -20 -20 -20 -20 -21 -21 -21 -21 -22 -22 -23 -24 -24 -23 -23 -22 -23 -23 -23 -22
-21 -20 -20 -20 -20 -20 -20 -20 -20 -20 -20 -20 -20 -20 -20 -21 -20 -20 -20 -21 -21 -21 -21 -22 -22 -23 -23 -23 -24 -24 -24 -23 -23 -23 -23 -23 -22 -22
-21 -21 -21 -21 -20 -20 -20 -20 -20 -21 -21 -20 -20 -21 -21 -21 -21 -20 -21 -21 -22 -22 -23 -22 -23 -23 -24 -24 -24 -24 -23 -24 -24 -24 -23 -23 -22 -22
-21 -21 -22 -21 -21 -21 -21 -21 -21 -21 -21 -21 -21 -21 -21 -22 -22 -23 -23 -23 -23 -23 -23 -24 -24 -24 -24 -24 -24 -24 -24 -24 -24 -23 -23 -23 -22 -22
-22 -22 -22 -22 -21 -21 -22 -22 -22 -22 -22 -21 -21 -22 -23 -23 -23 -23 -24 -24 -24 -24 -24 -24 -24 -24 -24 -24 -25 -25 -25 -25 -24 -23 -23 -23 -23 -24
-22 -22 -22 -22 -22 -22 -22 -22 -22 -23 -23 -23 -23 -24 -23 -24 -24 -24 -24 -24 -24 -24 -25 -24 -24 -25 -26 -26 -26 -26 -25 -25 -25 -25 -25 -25 -25 -25
-23 -23 -23 -23 -22 -22 -23 -23 -23 -23 -24 -24 -24 -24 -24 -24 -24 -24 -24 -24 -24 -24 -24 -25 -25 -26 -26 -25 -26 -27 -26 -27 -26 -26 -26 -26 -26 -27
-24 -23 -24 -24 -23 -23 -24 -24 -24 -24 -24 -24 -24 -24 -24 -24 -24 -24 -24 -24 -25 -25 -25 -25 -26 -26 -25 -25 -26 -27 -27 -27 -27 -27 -27 -28 -28 -28
-24 -24 -25 -25 -24 -24 -25 -24 -24 -24 -24 -24 -24 -24 -25 -25 -25 -24 -25 -25 -25 -26 -26 -26 -26 -26 -26 -27 -26 -27 -27 -27 -28 -28 -28 -28 -28 -29
-25 -25 -25 -25 -25 -25 -24 -24 -24 -25 -24 -25 -25 -25 -25 -25 -25 -25 -26 -26 -26 -26 -27 -27 -27 -27 -27 -27 -27 -27 -27 -27 -28 -28 -28 -28 -29 -29
-25 -25 -25 -25 -25 -25 -25 -25 -25 -25 -26 -26 -26 -26 -26 -26 -26 -26 -27 -27 -27 -28 -28 -28 -28 -27 -27 -27 -27 -28 -28 -29 -29 -28 -28 -29 -29 -30
-26 -25 -26 -26 -25 -26 -26 -26 -26 -26 -27 -27 -27 -26 -27 -27 -27 -27 -28 -28 -28 -28 -28 -28 -28 -28 -28 -29 -29 -29 -29 -30 -30 -30 -30 -29 -29 -31
-26 -26 -26 -26 -26 -26 -26 -27 -27 -27 -27 -27 -28 -28 -28 -28 -28 -28 -28 -28 -28 -28 -29 -29 -29 -29 -29 -30 -30 -31 -31 -31 -30 -31 -31 -32 -32 -33
-27 -27 -27 -27 -27 -27 -27 -28 -28 -28 -28 -28 -28 -28 -29 -29 -29 -29 -29 -29 -29 -29 -30 -30 -30 -30 -30 -30 -30 -31 -32 -33 -33 -33 -34 -34 -34 -34
-27 -27 -27 -27 -27 -27 -28 -28 -28 -28 -28 -28 -29 -29 -29 -29 -29 -29 -30 -30 -30 -30 -30 -30 -31 -31 -32 -32 -32 -33 -34 -34 -34 -34 -34 -34 -34 -34
-27 -27 -27 -28 -28 -28 -28 -29 -29 -29 -29 -29 -29 -29 -29 -30 -30 -30 -30 -30 -30 -30 -31 -32 -33 -33 -34 -34 -34 -34 -34 -34 -35 -35 -35 -35 -35 -34
-28 -28 -28 -28 -28 -29 -29 -29 -29 -29 -30 -29 -29 -30 -30 -30 -30 -30 -31 -31 -32 -33 -33 -34 -34 -34 -34 -35 -35 -35 -35 -35 -35 -35 -35 -35 -35 -35
Height
5644 5647 5648 5652 5656 5659 5660 5661 5661 5663 5666 5666 5668 5669 5670 5669 5670 5670 5671 5671 5672 5673 5674 5674 5675 5675 5676 5675 5675 5675 5674 5675 5676 5677 5678 5679 5680 5680
5633 5631 5633 5638 5639 5642 5645 5647 5645 5645 5647 5649 5650 5651 5652 5652 5652 5654 5655 5656 5658 5659 5659 5660 5660 5661 5661 5661 5661 5660 5660 5661 5662 5663 5664 5664 5665 5665
5615 5618 5618 5618 5621 5623 5629 5630 5631 5631 5632 5633 5632 5631 5634 5634 5635 5637 5639 5641 5644 5646 5644 5645 5645 5645 5645 5645 5645 5645 5644 5646 5648 5650 5651 5651 5650 5649
5600 5604 5602 5604 5606 5609 5611 5614 5615 5618 5619 5618 5614 5617 5617 5619 5621 5623 5625 5628 5630 5630 5629 5629 5629 5629 5629 5629 5628 5629 5628 5630 5632 5635 5636 5637 5635 5634
5585 5588 5591 5592 5595 5596 5596 5598 5599 5600 5600 5605 5605 5607 5606 5608 5609 5611 5612 5614 5615 5615 5614 5614 5613 5612 5612 5612 5612 5613 5614 5616 5616 5617 5618 5617 5616 5616
5572 5575 5578 5579 5581 5582 5585 5587 5587 5590 5590 5593 5593 5594 5594 5594 5596 5598 5599 5598 5599 5599 5599 5598 5597 5596 5597 5597 5597 5597 5598 5600 5600 5600 5602 5602 5599 5598
5560 5563 5566 5566 5569 5570 5573 5574 5574 5577 5578 5580 5582 5582 5581 5580 5580 5581 5583 5582 5582 5582 5582 5582 5581 5580 5581 5583 5582 5582 5582 5584 5586 5585 5584 5584 5584 5581
5547 5550 5553 5556 5557 5558 5559 5559 5562 5564 5565 5565 5566 5566 5566 5565 5566 5565 5566 5567 5568 5566 5565 5566 5564 5566 5566 5567 5567 5568 5568 5568 5568 5568 5568 5567 5565 5564
5534 5538 5540 5544 5546 5546 5546 5548 5549 5549 5550 5551 5550 5549 5549 5550 5550 5550 5550 5551 5550 5550 5551 5551 5551 5551 5552 5552 5552 5552 5552 5552 5551 5551 5550 5548 5545 5543
5523 5524 5529 5530 5532 5533 5534 5536 5535 5535 5537 5537 5537 5536 5534 5533 5535 5535 5536 5537 5537 5537 5538 5538 5539 5538 5538 5538 5537 5536 5534 5533 5532 5530 5529 5525 5523 5521
5511 5513 5516 5515 5519 5520 5521 5523 5523 5520 5521 5521 5521 5520 5520 5520 5520 5521 5522 5523 5523 5524 5523 5525 5526 5525 5522 5521 5519 5517 5516 5514 5512 5510 5507 5504 5502 5501
5500 5501 5501 5502 5504 5505 5506 5507 5508 5507 5505 5507 5508 5504 5508 5508 5507 5506 5508 5509 5510 5512 5512 5512 5512 5510 5508 5506 5504 5501 5499 5494 5491 5487 5485 5483 5481 5478
5487 5488 5486 5486 5486 5490 5494 5494 5495 5494 5494 5496 5498 5497 5497 5496 5495 5496 5494 5496 5497 5498 5497 5496 5495 5495 5494 5494 5489 5482 5479 5475 5473 5468 5464 5461 5457 5453
5471 5472 5473 5477 5478 5481 5483 5483 5482 5483 5484 5485 5487 5488 5486 5484 5484 5484 5484 5483 5481 5481 5481 5481 5480 5479 5477 5477 5474 5468 5460 5456 5452 5447 5443 5439 5435 5430
5463 5465 5467 5468 5470 5472 5470 5473 5472 5471 5471 5473 5474 5475 5474 5474 5473 5471 5470 5468 5467 5466 5465 5464 5463 5461 5458 5455 5454 5448 5441 5437 5430 5425 5421 5417 5411 5405
5455 5456 5458 5460 5462 5461 5459 5461 5460 5459 5460 5462 5462 5462 5462 5461 5460 5458 5457 5454 5453 5451 5448 5446 5444 5442 5438 5434 5431 5425 5417 5413 5405 5399 5397 5392 5386 5380
5448 5450 5451 5452 5452 5451 5451 5450 5450 5450 5450 5451 5451 5451 5450 5449 5447 5445 5443 5441 5437 5434 5429 5426 5423 5420 5417 5412 5407 5398 5393 5385 5377 5373 5369 5367 5361 5353
5440 5442 5443 5444 5443 5443 5443 5442 5442 5442 5442 5442 5440 5439 5437 5435 5433 5431 5428 5425 5421 5417 5412 5406 5402 5399 5395 5390 5380 5374 5365 5357 5351 5344 5337 5334 5335 5324
5433 5435 5436 5436 5435 5435 5434 5433 5433 5433 5432 5430 5428 5426 5423 5420 5418 5415 5411 5407 5403 5398 5392 5386 5381 5376 5372 5367 5363 5349 5340 5333 5326 5318 5308 5302 5303 5300
5427 5428 5428 5427 5426 5425 5425 5425 5423 5422 5420 5418 5415 5413 5410 5406 5402 5398 5394 5390 5385 5379 5372 5364 5357 5351 5345 5340 5337 5330 5313 5305 5296 5292 5284 5278 5272 5269
5419 5419 5419 5417 5416 5415 5415 5413 5411 5409 5407 5404 5401 5398 5394 5390 5386 5381 5376 5370 5364 5358 5351 5343 5334 5327 5319 5313 5308 5304 5294 5280 5269 5261 5256 5249 5242 5244
5411 5411 5410 5408 5407 5406 5405 5403 5400 5397 5395 5392 5389 5384 5379 5374 5369 5363 5357 5350 5343 5335 5329 5321 5312 5303 5295 5287 5284 5279 5273 5262 5250 5240 5228 5212 5202 5202
5403 5402 5401 5399 5398 5396 5394 5392 5389 5386 5383 5379 5374 5369 5363 5357 5351 5344 5336 5329 5321 5314 5306 5299 5290 5282 5273 5264 5259 5254 5246 5236 5226 5222 5213 5190 5178 5169
Wind_Speed
59 59 57 68 62 57 57 65 68 67 70 59 61 61 61 59 59 60 59 62 58 54 55 50 48 46 47 49 50 49 49 49 49 50 51 50 51 46
59 53 51 58 54 55 52 60 57 62 74 67 65 66 70 70 68 58 53 53 53 53 52 51 52 54 51 52 53 52 52 52 52 54 51 49 52 46
61 59 62 52 53 55 60 52 49 51 54 60 74 68 68 67 62 52 51 51 51 51 54 54 53 53 56 55 55 57 56 52 49 50 48 46 44 44
56 63 61 61 61 62 61 68 65 64 59 55 53 47 40 41 42 44 49 46 49 54 56 55 53 56 55 56 56 58 56 51 48 49 45 45 46 44
53 48 48 49 52 46 45 46 42 42 44 48 43 42 39 40 42 45 44 49 50 52 52 54 54 54 56 56 58 55 51 49 50 49 47 47 52 52
51 50 46 46 51 44 40 41 43 41 36 40 41 44 44 46 47 50 50 52 52 53 54 55 56 60 57 55 51 49 48 49 51 53 54 55 49 49
34 37 36 37 38 40 44 41 38 46 51 50 46 47 47 47 46 48 51 52 55 55 56 53 52 54 55 55 54 56 57 57 56 60 49 47 49 48
33 35 36 36 32 33 35 36 40 45 45 47 50 48 46 47 49 51 51 51 53 51 48 48 51 52 55 54 52 53 54 58 53 49 51 52 52 54
39 39 36 37 36 35 34 34 34 36 42 45 45 44 47 49 50 52 51 48 45 45 47 50 53 57 53 51 53 57 57 52 51 53 55 57 57 58
43 45 44 42 44 44 43 44 41 39 39 41 45 48 48 48 47 43 41 41 43 43 46 50 51 50 52 52 51 50 52 53 56 59 60 61 63 66
43 43 44 44 46 44 46 49 49 43 46 55 49 44 42 40 38 40 41 41 43 46 47 49 50 50 48 47 48 51 55 60 63 65 67 68 70 72
42 44 44 44 45 45 49 47 45 43 42 41 40 33 37 37 37 39 43 45 45 47 49 50 49 45 46 50 53 58 62 65 67 68 70 71 73 74
47 44 41 42 44 50 45 40 39 37 38 35 33 35 38 38 38 41 42 46 47 48 46 47 46 48 51 55 57 61 64 66 68 70 73 75 75 75
40 41 41 43 41 43 38 42 41 40 38 39 40 42 42 42 43 46 47 47 47 47 48 49 52 56 59 61 64 65 67 70 72 75 75 75 73 73
40 37 36 36 37 39 35 38 38 37 38 41 44 44 45 47 48 50 48 47 48 49 52 55 58 62 65 67 69 70 73 74 76 77 76 74 74 75
29 33 35 34 36 35 32 35 36 36 37 40 41 40 44 47 47 46 47 47 51 54 58 62 64 66 68 69 71 75 79 79 78 77 77 77 78 81
32 32 33 33 35 35 35 34 31 31 31 32 33 37 40 43 45 47 50 53 55 59 63 65 67 69 72 75 76 78 77 78 81 82 83 83 85 85
27 31 31 30 28 26 26 25 26 28 31 35 39 42 45 47 50 52 54 56 59 61 64 68 71 73 74 74 77 78 80 83 86 89 90 90 87 82
21 22 24 25 27 30 31 30 32 36 40 42 44 46 47 50 52 54 55 59 62 65 68 70 72 74 75 76 77 80 85 88 87 84 85 83 80 77
25 26 28 28 28 29 31 32 32 34 37 39 41 44 47 50 53 56 58 61 63 66 69 73 76 79 82 83 85 80 78 78 78 77 77 78 78 77
27 28 30 32 34 35 37 38 38 39 41 44 45 46 49 52 54 57 61 64 68 71 75 78 80 81 80 79 75 72 71 74 77 78 79 82 85 82
28 31 33 34 35 37 37 37 38 39 40 43 46 49 52 56 59 63 67 71 74 76 77 77 75 73 71 71 70 69 69 74 80 84 88 93 94 90
29 30 30 31 31 33 34 35 37 39 43 46 49 53 56 60 64 67 70 72 72 72 70 68 68 69 71 73 74 76 80 84 86 85 84 87 86 84
Wind_Direction
256 264 272 265 264 266 277 279 271 269 264 259 260 261 260 265 262 268 269 268 269 262 264 267 266 267 273 270 271 269 265 263 259 259 259 261 262 264
266 261 261 255 261 271 270 267 267 275 270 260 272 262 262 264 263 267 263 266 260 258 262 264 264 263 270 268 270 268 261 257 257 258 259 259 259 263
253 259 261 261 266 267 269 268 272 270 266 262 261 265 266 268 268 258 253 255 256 261 262 264 266 266 270 269 268 266 257 254 256 257 258 259 263 267
249 252 262 264 264 266 264 270 277 279 274 272 265 261 255 254 253 254 253 257 258 259 262 263 265 268 267 268 267 265 256 252 255 255 259 261 265 273
250 256 256 270 270 270 271 268 273 270 271 265 257 255 258 259 259 261 262 263 268 270 266 264 264 265 268 267 263 259 253 249 251 253 254 259 261 266
251 258 261 259 258 264 270 270 268 260 258 258 256 254 258 262 266 269 267 268 268 263 262 261 264 266 264 260 253 253 254 255 253 253 260 266 269 270
248 254 256 262 265 266 270 267 261 267 262 269 266 269 270 266 265 263 263 258 257 258 262 265 265 263 261 259 253 251 251 255 256 261 266 271 271 275
252 257 261 262 256 266 273 277 275 270 269 269 270 270 268 268 262 258 256 257 259 260 262 263 262 258 256 251 253 256 258 261 262 267 269 271 272 275
258 260 256 255 258 262 268 275 278 278 272 268 268 262 260 260 261 259 257 257 257 260 262 262 261 258 259 260 261 261 262 265 269 272 274 277 278 279
263 261 260 258 263 263 274 277 273 275 277 271 265 261 261 259 258 255 258 261 264 265 264 263 261 260 260 260 261 265 269 275 277 278 278 281 284 285
262 262 265 265 263 264 273 275 277 277 274 278 270 255 251 252 255 261 262 261 259 258 259 259 260 261 265 269 274 277 278 277 278 280 282 283 283 283
265 267 271 271 273 270 281 275 273 275 270 261 254 255 262 262 261 262 264 261 260 258 258 259 262 266 271 274 275 275 277 279 282 284 285 285 286 285
273 271 277 278 275 275 273 273 273 271 259 258 265 266 263 262 264 264 263 260 259 261 263 265 269 271 273 274 277 280 281 282 284 284 284 285 284 284
276 276 273 273 273 266 271 269 261 256 257 260 265 268 267 267 265 264 260 262 265 266 266 268 271 273 274 275 276 279 282 284 284 283 284 284 283 283
265 274 270 270 270 268 264 262 262 261 264 266 266 266 270 270 268 264 264 265 266 268 270 272 274 276 277 278 278 280 281 282 283 283 283 284 285 286
263 266 264 263 261 262 263 267 271 270 270 270 270 269 271 270 267 268 268 270 273 274 275 276 278 279 280 281 282 282 283 284 285 285 286 287 287 286
258 258 261 264 267 274 276 273 275 272 269 270 273 274 272 271 272 275 276 278 278 280 281 282 283 283 284 284 285 285 286 287 287 287 287 287 287 288
258 261 264 264 267 270 271 271 272 277 279 276 274 274 276 278 279 280 281 281 281 282 283 283 284 285 286 287 288 289 290 290 290 290 290 289 289 289
254 255 263 268 272 274 276 279 279 279 280 281 282 282 282 282 282 282 282 283 284 285 285 285 285 286 287 288 289 290 290 290 289 289 289 290 290 288
277 279 277 276 277 278 278 278 281 284 283 281 281 282 283 283 283 283 284 285 285 286 287 289 290 290 290 290 289 291 291 292 291 291 290 290 290 289
278 277 278 280 282 283 282 283 285 286 287 287 286 286 286 287 288 288 289 289 289 290 291 291 292 292 292 292 292 294 294 294 294 293 293 292 290 290
278 281 281 280 280 282 285 286 286 287 288 288 288 288 289 290 292 292 291 291 292 292 292 292 293 294 295 295 295 294 294 293 293 294 296 295 294 293
279 282 283 284 284 286 288 289 290 290 291 293 294 295 294 294 294 295 294 293 293 293 294 295 296 296 296 296 296 296 295 294 294 294 295 294 294 295